Regional Weather Roundup
Issued by NWS Newport/Morehead, NC

Current Version | Previous Version | Text Only | Print | Product List | Glossary On
Versions: 1 2 3 4 5 6 7 8 9 10 11 12 13 14 15 16 17 18 19 20 21 22 23 24 25 26 27 28 29 30 31 32 33 34 35 36 37 38 39 40 41 42 43 44 45 46 47 48 49 50
000
ASUS42 KMHX 202325
RWRMHX
WEATHER ROUNDUP FOR EASTERN NORTH CAROLINA
NATIONAL WEATHER SERVICE NEWPORT/MOREHEAD CITY NC
600 PM EST MON NOV 20 2017

NOTE: "FAIR" INDICATES FEW OR NO CLOUDS BELOW 12,000 FEET
WITH NO SIGNIFICANT WEATHER AND/OR OBSTRUCTIONS TO VISIBILITY

NCZ015>017-031-032-045>047-102-103-210000-
NORTH COAST

CITY           SKY/WX    TMP DP  RH WIND       PRES   REMARKS
EDENTON        CLEAR     43  37  79 CALM      30.26R
ELIZABETH CITY CLEAR     42  34  73 CALM      30.25R
KITTY HAWK     CLEAR     44  33  64 CALM      30.25R
MANTEO         CLEAR     40  35  83 CALM      30.26F

$$

NCZ045>047-081-094-103-104-210000-
CENTRAL COAST

CITY           SKY/WX    TMP DP  RH WIND       PRES   REMARKS
FRISCO         CLEAR     43  36  76 NE3       30.26R

$$

NCZ095-097-098-100-101-210000-
SOUTHERN COAST

CITY           SKY/WX    TMP DP  RH WIND       PRES   REMARKS
BEAUFORT       CLEAR     46  37  71 NE3       30.26R
CEDAR ISLAND   NOT AVBL
JACKSONVILLE   CLEAR     44  39  82 CALM      30.25R
PINEY ISLAND     N/A    N/A N/A N/A NE5       30.25S
WILMINGTON     PTCLDY    46  37  71 NE3       30.25S


$$

NCZ011>013-027>030-043-044-078>080-089-090>093-098-210000-
COASTAL PLAIN

CITY           SKY/WX    TMP DP  RH WIND       PRES   REMARKS
AHOSKIE        CLEAR     39  33  78 CALM      30.25R
CLINTON        CLEAR     45  33  64 CALM      30.25R
ELIZABETHTOWN  NOT AVBL
GOLDSBORO      CLEAR     44  34  69 CALM      30.22S
GREENVILLE     CLEAR     39  32  75 CALM      30.25F
HAVELOCK       CLEAR     46  37  71 CALM      30.26R
KENANSVILLE    CLEAR     39  32  75 CALM      30.25R
KINSTON        CLOUDY    43  34  70 CALM      30.25S
NEW BERN       CLEAR     41  36  82 CALM      30.26R
RICHLANDS      CLEAR     42  37  82 CALM      30.26R
ROCKY MOUNT    CLEAR     40  35  83 CALM      30.24R
WASHINGTON     CLEAR     44  35  69 CALM      30.26R
WHITEVILLE     CLOUDY    46  37  70 CALM      30.24R

$$

AMZ130-135-150-152-154-156-158-170-250-252-270-ANZ085-086-088-633-658-670-210000-
MARINE OBSERVATIONS

STATION/POSITION TIME  TEMP    WIND        PRES    WAVE   SWELL
                       AIR SEA DIR/SP/G            HT/PER HT/PER
                 (UTC) (F)     (DEG/KT/KT) (MB)    (FT/S) (FT/S)
CHESAPEAKE LIGHT NOT AVBL
64 E VA BEACH    2250   51 60  340/  8/ 12 1024.3    3/ 6   3/ 6
DUCK             2300   50 60  200/  6/  7 1023.9
2 E DUCK         2300      61                N/A     2/ 7
OREGON INLET     2300   48 56  290/  3/  4 1024.4
13E OREGON INLT  2248      62                N/A     4/ 7   3/ 7
HATTERAS CG      2300   49 58   60/  4/  5 1024.4
DIAMOND BUOY     2310   54 66   20/  6/ 12 1024.8
CAPE LOOKOUT     2300           10/  6/  6 1024.7
BEAUFORT LAB     2300   50 59   60/  4/  5 1024.5
30 SE NEW RVR IN 2208   56 67   80/  6/  8 1024.1
30 SE NEW RVR IN 2300      68                N/A     2/ 9
27 SE WRIGHTSVLE 2208   56 68   60/  6/ 10 1024.1
5 SE WRIGHTSVLE  2308   57 64   90/  4/  6 1024.1
225 S CAPE HAT   2250   67 77   50/ 14/ 17 1022.1    6/ 7   5/ 7
41 SE CHARLESTON 2310   61 73   60/ 12/ 16 1023.1

$$



USA.gov is the U.S. government's official web portal to all federal, state and local government web resources and services.